Time,TemperatureF,DewpointF,PressureIn,WindDirection,WindDirectionDegrees,WindSpeedMPH,WindSpeedGustMPH,Humidity,HourlyPrecipIn,Conditions,Clouds,dailyrainin,SoftwareType,DateUTC
2013-10-10 00:01:00,44.9,43.0,30.30,NE,44,0.0,0.0,93,0.00,,,0.00,WeatherCatV1.21B27,2013-10-10 04:01:00,
2013-10-10 00:06:00,44.8,43.2,30.30,NE,44,0.0,0.0,94,0.00,,,0.00,WeatherCatV1.21B27,2013-10-10 04:06:00,
2013-10-10 00:11:00,44.8,43.2,30.30,NE,44,0.0,0.0,94,0.00,,,0.00,WeatherCatV1.21B27,2013-10-10 04:11:00,
2013-10-10 00:16:00,44.8,43.2,30.30,NE,44,0.0,0.0,94,0.00,,,0.00,WeatherCatV1.21B27,2013-10-10 04:16:00,
2013-10-10 00:21:00,44.8,43.2,30.30,NE,44,0.0,0.0,94,0.00,,,0.00,WeatherCatV1.21B27,2013-10-10 04:21:00,
2013-10-10 00:26:00,44.7,43.1,30.30,NE,44,0.0,0.0,94,0.00,,,0.00,WeatherCatV1.21B27,2013-10-10 04:26:00,
2013-10-10 00:31:00,44.6,43.0,30.30,NE,44,0.0,0.0,94,0.00,,,0.00,WeatherCatV1.21B27,2013-10-10 04:31:00,
2013-10-10 00:36:00,44.5,42.9,30.30,NE,44,0.0,0.0,94,0.00,,,0.00,WeatherCatV1.21B27,2013-10-10 04:36:00,
2013-10-10 00:41:00,44.5,42.9,30.30,NE,44,0.0,0.0,94,0.00,,,0.00,WeatherCatV1.21B27,2013-10-10 04:41:00,
2013-10-10 00:46:00,44.5,42.9,30.30,NE,44,0.0,0.0,94,0.00,,,0.00,WeatherCatV1.21B27,2013-10-10 04:46:00,
2013-10-10 00:51:00,44.5,42.9,30.29,NE,44,0.0,0.0,94,0.00,,,0.00,WeatherCatV1.21B27,2013-10-10 04:51:00,
2013-10-10 00:56:00,44.4,42.8,30.29,NE,44,0.0,0.0,94,0.00,,,0.00,WeatherCatV1.21B27,2013-10-10 04:56:00,
2013-10-10 01:01:00,44.4,42.8,30.29,NE,44,0.0,1.0,94,0.00,,,0.00,WeatherCatV1.21B27,2013-10-10 05:01:00,
2013-10-10 01:06:00,44.4,42.8,30.29,NE,44,0.0,0.0,94,0.00,,,0.00,WeatherCatV1.21B27,2013-10-10 05:06:00,
2013-10-10 01:11:00,44.3,42.7,30.29,NE,44,0.0,0.0,94,0.00,,,0.00,WeatherCatV1.21B27,2013-10-10 05:11:00,
2013-10-10 01:16:00,44.2,42.6,30.29,NE,44,0.0,0.0,94,0.00,,,0.00,WeatherCatV1.21B27,2013-10-10 05:16:00,
2013-10-10 01:21:00,44.2,42.6,30.29,NE,44,0.0,0.0,94,0.00,,,0.00,WeatherCatV1.21B27,2013-10-10 05:21:00,
2013-10-10 01:26:00,44.2,42.6,30.29,NE,44,0.0,0.0,94,0.00,,,0.00,WeatherCatV1.21B27,2013-10-10 05:26:00,
2013-10-10 01:31:00,44.2,42.9,30.29,NE,44,0.0,0.0,95,0.00,,,0.00,WeatherCatV1.21B27,2013-10-10 05:31:00,
2013-10-10 01:36:00,44.2,42.9,30.29,NE,44,0.0,0.0,95,0.00,,,0.00,WeatherCatV1.21B27,2013-10-10 05:36:00,
2013-10-10 01:41:00,44.3,43.0,30.29,NE,44,0.0,0.0,95,0.00,,,0.00,WeatherCatV1.21B27,2013-10-10 05:41:00,
2013-10-10 01:46:00,44.3,43.0,30.29,NE,44,0.0,0.0,95,0.00,,,0.00,WeatherCatV1.21B27,2013-10-10 05:46:00,
2013-10-10 01:51:00,44.4,43.1,30.29,NE,44,0.0,0.0,95,0.00,,,0.00,WeatherCatV1.21B27,2013-10-10 05:51:00,
2013-10-10 01:56:00,44.3,43.0,30.29,NE,44,0.0,0.0,95,0.00,,,0.00,WeatherCatV1.21B27,2013-10-10 05:56:00,
2013-10-10 02:01:00,44.2,42.6,30.28,NE,44,0.0,0.0,94,0.00,,,0.00,WeatherCatV1.21B27,2013-10-10 06:01:00,
2013-10-10 02:06:00,44.1,42.5,30.28,NE,44,0.0,0.0,94,0.00,,,0.00,WeatherCatV1.21B27,2013-10-10 06:06:00,
2013-10-10 02:11:00,44.1,42.8,30.28,NE,44,0.0,0.0,95,0.00,,,0.00,WeatherCatV1.21B27,2013-10-10 06:11:00,
2013-10-10 02:16:00,44.2,42.9,30.28,NE,44,0.0,0.0,95,0.00,,,0.00,WeatherCatV1.21B27,2013-10-10 06:16:00,
2013-10-10 02:21:00,44.1,42.8,30.28,NE,44,0.0,0.0,95,0.00,,,0.00,WeatherCatV1.21B27,2013-10-10 06:21:00,
2013-10-10 02:26:00,44.0,42.4,30.28,NE,44,0.0,0.0,94,0.00,,,0.00,WeatherCatV1.21B27,2013-10-10 06:26:00,
2013-10-10 02:31:00,43.9,42.3,30.28,NE,44,0.0,0.0,94,0.00,,,0.00,WeatherCatV1.21B27,2013-10-10 06:31:00,
2013-10-10 02:36:00,43.8,42.5,30.28,NE,44,0.0,0.0,95,0.00,,,0.00,WeatherCatV1.21B27,2013-10-10 06:36:00,
2013-10-10 02:41:00,43.8,42.5,30.28,NE,44,0.0,0.0,95,0.00,,,0.00,WeatherCatV1.21B27,2013-10-10 06:41:00,
2013-10-10 02:46:00,43.8,42.5,30.28,NE,44,0.0,0.0,95,0.00,,,0.00,WeatherCatV1.21B27,2013-10-10 06:46:00,
2013-10-10 02:51:00,43.7,42.4,30.28,NE,44,0.0,0.0,95,0.00,,,0.00,WeatherCatV1.21B27,2013-10-10 06:51:00,
2013-10-10 02:56:00,43.8,42.5,30.28,NE,44,0.0,0.0,95,0.00,,,0.00,WeatherCatV1.21B27,2013-10-10 06:56:00,
2013-10-10 03:01:00,43.8,42.5,30.28,NE,44,0.0,0.0,95,0.00,,,0.00,WeatherCatV1.21B27,2013-10-10 07:01:00,
2013-10-10 03:06:00,43.9,42.6,30.28,NE,44,0.0,0.0,95,0.00,,,0.00,WeatherCatV1.21B27,2013-10-10 07:06:00,
2013-10-10 03:11:00,43.9,42.6,30.28,NE,44,0.0,0.0,95,0.00,,,0.00,WeatherCatV1.21B27,2013-10-10 07:11:00,
2013-10-10 03:16:00,44.0,42.7,30.28,NE,44,0.0,0.0,95,0.00,,,0.00,WeatherCatV1.21B27,2013-10-10 07:16:00,
2013-10-10 03:21:00,44.0,42.7,30.28,NE,44,0.0,0.0,95,0.00,,,0.00,WeatherCatV1.21B27,2013-10-10 07:21:00,
2013-10-10 03:26:00,43.9,42.6,30.28,NE,44,0.0,0.0,95,0.00,,,0.00,WeatherCatV1.21B27,2013-10-10 07:26:00,
2013-10-10 03:31:00,43.9,42.6,30.28,NE,44,0.0,0.0,95,0.00,,,0.00,WeatherCatV1.21B27,2013-10-10 07:31:00,
2013-10-10 03:36:00,43.8,42.5,30.28,NE,44,0.0,0.0,95,0.00,,,0.00,WeatherCatV1.21B27,2013-10-10 07:36:00,
2013-10-10 03:41:00,43.8,42.5,30.27,NE,44,0.0,0.0,95,0.00,,,0.00,WeatherCatV1.21B27,2013-10-10 07:41:00,
2013-10-10 03:46:00,43.8,42.5,30.27,NE,44,0.0,0.0,95,0.00,,,0.00,WeatherCatV1.21B27,2013-10-10 07:46:00,
2013-10-10 03:51:00,43.8,42.5,30.27,NE,44,0.0,0.0,95,0.00,,,0.00,WeatherCatV1.21B27,2013-10-10 07:51:00,
2013-10-10 03:56:00,43.9,42.6,30.27,NE,44,0.0,0.0,95,0.00,,,0.00,WeatherCatV1.21B27,2013-10-10 07:56:00,
2013-10-10 04:01:00,44.0,42.7,30.27,NE,44,0.0,0.0,95,0.00,,,0.00,WeatherCatV1.21B27,2013-10-10 08:01:00,
2013-10-10 04:06:00,44.0,42.7,30.27,NE,44,0.0,0.0,95,0.00,,,0.00,WeatherCatV1.21B27,2013-10-10 08:06:00,
2013-10-10 04:11:00,44.0,42.7,30.27,NE,44,0.0,0.0,95,0.00,,,0.00,WeatherCatV1.21B27,2013-10-10 08:11:00,
2013-10-10 04:16:00,43.9,42.6,30.26,NE,44,0.0,0.0,95,0.00,,,0.00,WeatherCatV1.21B27,2013-10-10 08:16:00,
2013-10-10 04:21:00,43.8,42.5,30.26,NE,44,0.0,0.0,95,0.00,,,0.00,WeatherCatV1.21B27,2013-10-10 08:21:00,
2013-10-10 04:26:00,43.8,42.5,30.26,NE,44,0.0,0.0,95,0.00,,,0.00,WeatherCatV1.21B27,2013-10-10 08:26:00,
2013-10-10 04:31:00,43.7,42.4,30.26,NE,44,0.0,0.0,95,0.00,,,0.00,WeatherCatV1.21B27,2013-10-10 08:31:00,
2013-10-10 04:36:00,43.8,42.5,30.26,NE,44,0.0,0.0,95,0.00,,,0.00,WeatherCatV1.21B27,2013-10-10 08:36:00,
2013-10-10 04:41:00,43.8,42.5,30.26,NE,44,0.0,0.0,95,0.00,,,0.00,WeatherCatV1.21B27,2013-10-10 08:41:00,
2013-10-10 04:46:00,43.7,42.4,30.25,NE,44,0.0,0.0,95,0.00,,,0.00,WeatherCatV1.21B27,2013-10-10 08:46:00,
2013-10-10 04:51:00,43.7,42.4,30.25,NE,44,0.0,0.0,95,0.00,,,0.00,WeatherCatV1.21B27,2013-10-10 08:51:00,
2013-10-10 04:56:00,43.7,42.4,30.25,NE,44,0.0,0.0,95,0.00,,,0.00,WeatherCatV1.21B27,2013-10-10 08:56:00,
2013-10-10 05:01:00,43.7,42.4,30.25,NE,44,0.0,0.0,95,0.00,,,0.00,WeatherCatV1.21B27,2013-10-10 09:01:00,
2013-10-10 05:06:00,43.7,42.4,30.25,NE,44,0.0,0.0,95,0.00,,,0.00,WeatherCatV1.21B27,2013-10-10 09:06:00,
2013-10-10 05:11:00,43.6,42.3,30.25,NE,44,0.0,0.0,95,0.00,,,0.00,WeatherCatV1.21B27,2013-10-10 09:11:00,
2013-10-10 05:16:00,43.5,42.2,30.25,NE,44,0.0,0.0,95,0.00,,,0.00,WeatherCatV1.21B27,2013-10-10 09:16:00,
2013-10-10 05:21:00,43.4,42.1,30.25,NE,44,0.0,0.0,95,0.00,,,0.00,WeatherCatV1.21B27,2013-10-10 09:21:00,
2013-10-10 05:26:00,43.3,42.0,30.25,NE,44,0.0,0.0,95,0.00,,,0.00,WeatherCatV1.21B27,2013-10-10 09:26:00,
2013-10-10 05:31:00,43.4,42.1,30.25,NE,44,0.0,0.0,95,0.00,,,0.00,WeatherCatV1.21B27,2013-10-10 09:31:00,
2013-10-10 05:36:00,43.4,42.3,30.25,NE,44,0.0,0.0,96,0.00,,,0.00,WeatherCatV1.21B27,2013-10-10 09:36:00,
2013-10-10 05:41:00,43.4,42.1,30.25,NE,44,0.0,0.0,95,0.00,,,0.00,WeatherCatV1.21B27,2013-10-10 09:41:00,
2013-10-10 05:46:00,43.3,42.0,30.26,NE,44,0.0,0.0,95,0.00,,,0.00,WeatherCatV1.21B27,2013-10-10 09:46:00,
2013-10-10 05:51:00,43.1,41.8,30.26,NE,44,1.0,1.0,95,0.00,,,0.00,WeatherCatV1.21B27,2013-10-10 09:51:00,
2013-10-10 05:56:00,43.0,41.7,30.26,NE,44,0.0,0.0,95,0.00,,,0.00,WeatherCatV1.21B27,2013-10-10 09:56:00,
2013-10-10 06:01:00,43.1,42.0,30.26,NE,44,0.0,0.0,96,0.00,,,0.00,WeatherCatV1.21B27,2013-10-10 10:01:00,
2013-10-10 06:06:00,43.2,42.1,30.26,NE,44,0.0,0.0,96,0.00,,,0.00,WeatherCatV1.21B27,2013-10-10 10:06:00,
2013-10-10 06:11:00,43.3,42.2,30.26,NE,44,0.0,0.0,96,0.00,,,0.00,WeatherCatV1.21B27,2013-10-10 10:11:00,
2013-10-10 06:16:00,43.4,42.3,30.26,NE,44,0.0,0.0,96,0.00,,,0.00,WeatherCatV1.21B27,2013-10-10 10:16:00,
2013-10-10 06:21:00,43.4,42.3,30.26,NE,44,0.0,0.0,96,0.00,,,0.00,WeatherCatV1.21B27,2013-10-10 10:21:00,
2013-10-10 06:26:00,43.4,42.3,30.26,NE,44,0.0,0.0,96,0.00,,,0.00,WeatherCatV1.21B27,2013-10-10 10:26:00,
2013-10-10 06:31:00,43.3,42.0,30.26,NE,44,0.0,0.0,95,0.00,,,0.00,WeatherCatV1.21B27,2013-10-10 10:31:00,
2013-10-10 06:36:00,43.3,42.0,30.25,NE,44,0.0,0.0,95,0.00,,,0.00,WeatherCatV1.21B27,2013-10-10 10:36:00,
2013-10-10 06:41:00,43.2,41.9,30.25,NE,44,0.0,0.0,95,0.00,,,0.00,WeatherCatV1.21B27,2013-10-10 10:41:00,
2013-10-10 06:46:00,43.1,41.8,30.25,NE,44,0.0,0.0,95,0.00,,,0.00,WeatherCatV1.21B27,2013-10-10 10:46:00,
2013-10-10 06:51:00,43.1,41.8,30.25,NE,44,0.0,0.0,95,0.00,,,0.00,WeatherCatV1.21B27,2013-10-10 10:51:00,
2013-10-10 06:56:00,43.0,41.7,30.26,NE,44,0.0,0.0,95,0.00,,,0.00,WeatherCatV1.21B27,2013-10-10 10:56:00,
2013-10-10 07:01:00,42.9,41.6,30.26,NE,44,1.0,2.0,95,0.00,,,0.00,WeatherCatV1.21B27,2013-10-10 11:01:00,
2013-10-10 07:06:00,42.9,41.8,30.26,NE,44,0.0,0.0,96,0.00,,,0.00,WeatherCatV1.21B27,2013-10-10 11:06:00,
2013-10-10 07:11:00,43.0,41.9,30.27,NE,44,0.0,0.0,96,0.00,,,0.00,WeatherCatV1.21B27,2013-10-10 11:11:00,
2013-10-10 07:16:00,43.2,42.1,30.26,NE,44,0.0,0.0,96,0.00,,,0.00,WeatherCatV1.21B27,2013-10-10 11:16:00,
2013-10-10 07:21:00,43.3,42.2,30.26,NE,44,0.0,0.0,96,0.00,,,0.00,WeatherCatV1.21B27,2013-10-10 11:21:00,
2013-10-10 07:26:00,43.3,42.2,30.26,NE,44,0.0,0.0,96,0.00,,,0.00,WeatherCatV1.21B27,2013-10-10 11:26:00,
2013-10-10 07:31:00,43.5,42.4,30.26,NE,44,0.0,0.0,96,0.00,,,0.00,WeatherCatV1.21B27,2013-10-10 11:31:00,
2013-10-10 07:36:00,43.5,42.4,30.26,NE,44,0.0,0.0,96,0.00,,,0.00,WeatherCatV1.21B27,2013-10-10 11:36:00,
2013-10-10 07:41:00,43.6,42.5,30.26,NE,44,0.0,0.0,96,0.00,,,0.00,WeatherCatV1.21B27,2013-10-10 11:41:00,
2013-10-10 07:46:00,43.7,42.6,30.26,NE,44,0.0,0.0,96,0.00,,,0.00,WeatherCatV1.21B27,2013-10-10 11:46:00,
2013-10-10 07:51:00,44.0,42.9,30.26,NE,44,0.0,0.0,96,0.00,,,0.00,WeatherCatV1.21B27,2013-10-10 11:51:00,
2013-10-10 07:56:00,44.3,43.2,30.26,NE,44,0.0,0.0,96,0.00,,,0.00,WeatherCatV1.21B27,2013-10-10 11:56:00,
2013-10-10 08:01:00,44.7,43.9,30.26,NNE,21,0.0,0.0,97,0.00,,,0.00,WeatherCatV1.21B27,2013-10-10 12:01:00,
2013-10-10 08:06:00,45.1,44.3,30.26,NNE,21,0.0,0.0,97,0.00,,,0.00,WeatherCatV1.21B27,2013-10-10 12:06:00,
2013-10-10 08:11:00,45.3,44.5,30.26,NNE,21,0.0,0.0,97,0.00,,,0.00,WeatherCatV1.21B27,2013-10-10 12:11:00,
2013-10-10 08:16:00,45.6,44.5,30.26,NNE,21,0.0,0.0,96,0.00,,,0.00,WeatherCatV1.21B27,2013-10-10 12:16:00,
2013-10-10 08:21:00,45.9,45.1,30.26,NNE,21,0.0,0.0,97,0.00,,,0.00,WeatherCatV1.21B27,2013-10-10 12:21:00,
2013-10-10 08:26:00,46.1,45.0,30.25,NNE,21,0.0,0.0,96,0.00,,,0.00,WeatherCatV1.21B27,2013-10-10 12:26:00,
2013-10-10 08:31:00,46.4,45.6,30.26,NNE,21,0.0,0.0,97,0.00,,,0.00,WeatherCatV1.21B27,2013-10-10 12:31:00,
2013-10-10 08:36:00,46.7,45.6,30.25,NNE,21,0.0,0.0,96,0.00,,,0.00,WeatherCatV1.21B27,2013-10-10 12:36:00,
2013-10-10 08:41:00,47.2,46.4,30.25,NNE,21,0.0,0.0,97,0.00,,,0.00,WeatherCatV1.21B27,2013-10-10 12:41:00,
2013-10-10 08:46:00,47.6,46.8,30.25,NNE,21,0.0,0.0,97,0.00,,,0.00,WeatherCatV1.21B27,2013-10-10 12:46:00,
2013-10-10 08:51:00,48.1,47.3,30.25,NNE,21,0.0,0.0,97,0.00,,,0.00,WeatherCatV1.21B27,2013-10-10 12:51:00,
2013-10-10 08:56:00,48.5,47.4,30.25,NNE,21,0.0,0.0,96,0.00,,,0.00,WeatherCatV1.21B27,2013-10-10 12:56:00,
2013-10-10 09:01:00,49.1,48.0,30.25,NNE,21,0.0,0.0,96,0.00,,,0.00,WeatherCatV1.21B27,2013-10-10 13:01:00,
2013-10-10 09:06:00,49.6,48.2,30.25,NNE,21,0.0,0.0,95,0.00,,,0.00,WeatherCatV1.21B27,2013-10-10 13:06:00,
2013-10-10 09:11:00,50.2,48.8,30.25,NNE,21,0.0,0.0,95,0.00,,,0.00,WeatherCatV1.21B27,2013-10-10 13:11:00,
2013-10-10 09:16:00,50.8,48.8,30.26,NNE,12,0.0,1.0,93,0.00,,,0.00,WeatherCatV1.21B27,2013-10-10 13:16:00,
2013-10-10 09:21:00,51.5,49.2,30.26,NW,323,0.0,0.0,92,0.00,,,0.00,WeatherCatV1.21B27,2013-10-10 13:21:00,
2013-10-10 09:26:00,51.9,49.1,30.26,NW,320,0.0,1.0,90,0.00,,,0.00,WeatherCatV1.21B27,2013-10-10 13:26:00,
2013-10-10 09:31:00,52.4,49.2,30.26,NW,320,0.0,0.0,89,0.00,,,0.00,WeatherCatV1.21B27,2013-10-10 13:31:00,
2013-10-10 09:36:00,53.0,49.8,30.26,NW,320,0.0,0.0,89,0.00,,,0.00,WeatherCatV1.21B27,2013-10-10 13:36:00,
2013-10-10 09:41:00,53.3,49.5,30.26,NW,320,0.0,0.0,87,0.00,,,0.00,WeatherCatV1.21B27,2013-10-10 13:41:00,
2013-10-10 09:46:00,53.8,50.0,30.25,NW,320,0.0,0.0,87,0.00,,,0.00,WeatherCatV1.21B27,2013-10-10 13:46:00,
2013-10-10 09:51:00,54.2,50.4,30.25,NW,321,0.0,0.0,87,0.00,,,0.00,WeatherCatV1.21B27,2013-10-10 13:51:00,
2013-10-10 09:56:00,54.7,50.6,30.25,NNW,348,0.0,2.0,86,0.00,,,0.00,WeatherCatV1.21B27,2013-10-10 13:56:00,
2013-10-10 10:01:00,55.2,50.8,30.25,NNE,21,0.0,2.0,85,0.00,,,0.00,WeatherCatV1.21B27,2013-10-10 14:01:00,
2013-10-10 10:06:00,55.6,50.8,30.25,NNE,24,0.0,1.0,84,0.00,,,0.00,WeatherCatV1.21B27,2013-10-10 14:06:00,
2013-10-10 10:11:00,55.9,50.8,30.25,NW,307,0.0,0.0,83,0.00,,,0.00,WeatherCatV1.21B27,2013-10-10 14:11:00,
2013-10-10 10:16:00,56.2,51.4,30.25,North,357,0.0,3.0,84,0.00,,,0.00,WeatherCatV1.21B27,2013-10-10 14:16:00,
2013-10-10 10:21:00,56.5,51.4,30.25,North,352,0.0,3.0,83,0.00,,,0.00,WeatherCatV1.21B27,2013-10-10 14:21:00,
2013-10-10 10:26:00,56.9,51.5,30.24,North,357,0.0,2.0,82,0.00,,,0.00,WeatherCatV1.21B27,2013-10-10 14:26:00,
2013-10-10 10:31:00,57.2,51.1,30.25,NE,47,0.0,3.0,80,0.00,,,0.00,WeatherCatV1.21B27,2013-10-10 14:31:00,
2013-10-10 10:36:00,57.2,51.1,30.25,ENE,62,0.0,2.0,80,0.00,,,0.00,WeatherCatV1.21B27,2013-10-10 14:36:00,
2013-10-10 10:41:00,57.2,51.1,30.25,NNE,18,0.0,1.0,80,0.00,,,0.00,WeatherCatV1.21B27,2013-10-10 14:41:00,
2013-10-10 10:46:00,57.2,51.1,30.25,ENE,59,0.0,2.0,80,0.00,,,0.00,WeatherCatV1.21B27,2013-10-10 14:46:00,
2013-10-10 10:51:00,57.2,51.4,30.24,ENE,59,0.0,0.0,81,0.00,,,0.00,WeatherCatV1.21B27,2013-10-10 14:51:00,
2013-10-10 10:56:00,57.3,51.5,30.24,NE,40,0.0,2.0,81,0.00,,,0.00,WeatherCatV1.21B27,2013-10-10 14:56:00,
2013-10-10 11:01:00,57.5,51.4,30.24,NNE,13,0.0,4.0,80,0.00,,,0.00,WeatherCatV1.21B27,2013-10-10 15:01:00,
2013-10-10 11:06:00,57.6,51.8,30.24,NNE,16,0.0,3.0,81,0.00,,,0.00,WeatherCatV1.21B27,2013-10-10 15:06:00,
2013-10-10 11:11:00,57.9,51.8,30.24,North,357,1.0,4.0,80,0.00,,,0.00,WeatherCatV1.21B27,2013-10-10 15:11:00,
2013-10-10 11:16:00,58.1,52.3,30.24,North,7,1.0,4.0,81,0.00,,,0.00,WeatherCatV1.21B27,2013-10-10 15:16:00,
2013-10-10 11:21:00,58.5,52.3,30.24,NNE,17,0.0,3.0,80,0.00,,,0.00,WeatherCatV1.21B27,2013-10-10 15:21:00,
2013-10-10 11:26:00,58.7,52.5,30.23,NNW,342,0.0,1.0,80,0.00,,,0.00,WeatherCatV1.21B27,2013-10-10 15:26:00,
2013-10-10 11:31:00,58.7,52.5,30.24,NNE,14,2.0,4.0,80,0.00,,,0.00,WeatherCatV1.21B27,2013-10-10 15:31:00,
2013-10-10 11:36:00,58.6,52.1,30.24,North,11,0.0,3.0,79,0.00,,,0.00,WeatherCatV1.21B27,2013-10-10 15:36:00,
2013-10-10 11:41:00,58.6,52.1,30.23,NNE,24,1.0,4.0,79,0.00,,,0.00,WeatherCatV1.21B27,2013-10-10 15:41:00,
2013-10-10 11:46:00,58.5,52.0,30.23,NNE,21,3.0,7.0,79,0.00,,,0.00,WeatherCatV1.21B27,2013-10-10 15:46:00,
2013-10-10 11:51:00,58.5,52.0,30.23,North,7,0.0,1.0,79,0.00,,,0.00,WeatherCatV1.21B27,2013-10-10 15:51:00,
2013-10-10 11:56:00,58.7,52.2,30.22,NNE,29,0.0,1.0,79,0.00,,,0.00,WeatherCatV1.21B27,2013-10-10 15:56:00,
2013-10-10 12:01:00,58.9,52.7,30.23,NE,37,0.0,2.0,80,0.00,,,0.00,WeatherCatV1.21B27,2013-10-10 16:01:00,
2013-10-10 12:06:00,58.9,52.0,30.23,SE,124,0.0,3.0,78,0.00,,,0.00,WeatherCatV1.21B27,2013-10-10 16:06:00,
2013-10-10 12:11:00,58.9,52.0,30.22,NNE,15,2.0,4.0,78,0.00,,,0.00,WeatherCatV1.21B27,2013-10-10 16:11:00,
2013-10-10 12:16:00,59.0,52.2,30.22,ENE,73,0.0,3.0,78,0.00,,,0.00,WeatherCatV1.21B27,2013-10-10 16:16:00,
2013-10-10 12:21:00,58.8,52.0,30.22,NNE,32,4.0,5.0,78,0.00,,,0.00,WeatherCatV1.21B27,2013-10-10 16:21:00,
2013-10-10 12:26:00,58.7,52.2,30.22,East,86,1.0,3.0,79,0.00,,,0.00,WeatherCatV1.21B27,2013-10-10 16:26:00,
2013-10-10 12:31:00,58.8,52.3,30.22,NNE,30,1.0,2.0,79,0.00,,,0.00,WeatherCatV1.21B27,2013-10-10 16:31:00,
2013-10-10 12:36:00,58.7,52.2,30.21,NNE,15,0.0,6.0,79,0.00,,,0.00,WeatherCatV1.21B27,2013-10-10 16:36:00,
2013-10-10 12:41:00,58.7,52.5,30.21,ENE,65,0.0,2.0,80,0.00,,,0.00,WeatherCatV1.21B27,2013-10-10 16:41:00,
2013-10-10 12:46:00,58.9,52.7,30.21,NNE,15,6.0,8.0,80,0.00,,,0.00,WeatherCatV1.21B27,2013-10-10 16:46:00,
2013-10-10 12:51:00,59.0,52.8,30.21,ENE,65,1.0,2.0,80,0.00,,,0.00,WeatherCatV1.21B27,2013-10-10 16:51:00,
2013-10-10 12:56:00,58.9,52.4,30.21,North,2,3.0,4.0,79,0.00,,,0.00,WeatherCatV1.21B27,2013-10-10 16:56:00,
2013-10-10 13:01:00,58.8,52.3,30.21,NNE,15,2.0,3.0,79,0.00,,,0.00,WeatherCatV1.21B27,2013-10-10 17:01:00,
2013-10-10 13:06:00,58.7,52.2,30.21,NE,38,0.0,1.0,79,0.00,,,0.00,WeatherCatV1.21B27,2013-10-10 17:06:00,
2013-10-10 13:11:00,58.6,52.1,30.21,ENE,78,1.0,4.0,79,0.00,,,0.00,WeatherCatV1.21B27,2013-10-10 17:11:00,
2013-10-10 13:16:00,58.5,52.3,30.21,NNE,17,4.0,5.0,80,0.00,,,0.00,WeatherCatV1.21B27,2013-10-10 17:16:00,
2013-10-10 13:21:00,58.7,52.5,30.21,NE,46,4.0,4.0,80,0.00,,,0.00,WeatherCatV1.21B27,2013-10-10 17:21:00,
2013-10-10 13:26:00,58.8,52.6,30.21,North,11,4.0,6.0,80,0.00,,,0.00,WeatherCatV1.21B27,2013-10-10 17:26:00,
2013-10-10 13:31:00,59.0,52.5,30.21,ESE,105,2.0,4.0,79,0.00,,,0.00,WeatherCatV1.21B27,2013-10-10 17:31:00,
2013-10-10 13:36:00,59.1,52.9,30.21,NNE,21,1.0,3.0,80,0.00,,,0.00,WeatherCatV1.21B27,2013-10-10 17:36:00,
2013-10-10 13:41:00,59.2,52.7,30.20,NE,40,0.0,2.0,79,0.00,,,0.00,WeatherCatV1.21B27,2013-10-10 17:41:00,
2013-10-10 13:46:00,59.3,52.8,30.20,NNE,13,2.0,4.0,79,0.00,,,0.00,WeatherCatV1.21B27,2013-10-10 17:46:00,
2013-10-10 13:51:00,59.5,52.6,30.20,North,7,0.0,2.0,78,0.00,,,0.00,WeatherCatV1.21B27,2013-10-10 17:51:00,
2013-10-10 13:56:00,59.8,52.9,30.20,NE,53,0.0,2.0,78,0.00,,,0.00,WeatherCatV1.21B27,2013-10-10 17:56:00,
2013-10-10 14:01:00,59.8,52.6,30.19,NNE,21,0.0,1.0,77,0.00,,,0.00,WeatherCatV1.21B27,2013-10-10 18:01:00,
2013-10-10 14:06:00,59.8,52.6,30.20,NE,51,0.0,3.0,77,0.00,,,0.00,WeatherCatV1.21B27,2013-10-10 18:06:00,
2013-10-10 14:11:00,59.6,52.4,30.20,ENE,69,1.0,2.0,77,0.00,,,0.00,WeatherCatV1.21B27,2013-10-10 18:11:00,
2013-10-10 14:16:00,59.6,52.7,30.20,NNE,16,3.0,4.0,78,0.00,,,0.00,WeatherCatV1.21B27,2013-10-10 18:16:00,
2013-10-10 14:21:00,59.7,52.5,30.20,ENE,64,1.0,5.0,77,0.00,,,0.00,WeatherCatV1.21B27,2013-10-10 18:21:00,
2013-10-10 14:26:00,59.6,52.4,30.19,North,7,0.0,2.0,77,0.00,,,0.00,WeatherCatV1.21B27,2013-10-10 18:26:00,
2013-10-10 14:31:00,59.7,52.8,30.19,NNE,18,3.0,4.0,78,0.00,,,0.00,WeatherCatV1.21B27,2013-10-10 18:31:00,
2013-10-10 14:36:00,59.8,52.9,30.19,NNW,328,0.0,1.0,78,0.00,,,0.00,WeatherCatV1.21B27,2013-10-10 18:36:00,
2013-10-10 14:41:00,59.6,52.7,30.19,NNE,30,0.0,2.0,78,0.00,,,0.00,WeatherCatV1.21B27,2013-10-10 18:41:00,
2013-10-10 14:46:00,59.5,52.6,30.19,SE,136,3.0,3.0,78,0.00,,,0.00,WeatherCatV1.21B27,2013-10-10 18:46:00,
2013-10-10 14:51:00,59.3,52.8,30.19,NNE,15,0.0,0.0,79,0.00,,,0.00,WeatherCatV1.21B27,2013-10-10 18:51:00,
2013-10-10 14:56:00,59.1,52.6,30.19,ENE,78,2.0,2.0,79,0.00,,,0.00,WeatherCatV1.21B27,2013-10-10 18:56:00,
2013-10-10 15:01:00,59.0,52.8,30.19,ENE,63,0.0,0.0,80,0.00,,,0.00,WeatherCatV1.21B27,2013-10-10 19:01:00,
2013-10-10 15:07:00,58.9,52.7,30.19,ENE,65,0.0,7.0,80,0.00,,,0.00,WeatherCatV1.21B27,2013-10-10 19:07:00,
2013-10-10 15:11:00,58.7,52.5,30.19,NNE,19,1.0,3.0,80,0.00,,,0.00,WeatherCatV1.21B27,2013-10-10 19:11:00,
2013-10-10 15:16:00,58.7,52.5,30.19,North,11,2.0,2.0,80,0.00,,,0.00,WeatherCatV1.21B27,2013-10-10 19:16:00,
2013-10-10 15:21:00,58.6,52.8,30.18,NNE,15,0.0,1.0,81,0.00,,,0.00,WeatherCatV1.21B27,2013-10-10 19:21:00,
2013-10-10 15:26:00,58.6,52.8,30.18,NE,47,0.0,1.0,81,0.00,,,0.00,WeatherCatV1.21B27,2013-10-10 19:26:00,
2013-10-10 15:31:00,58.5,53.0,30.18,North,7,0.0,2.0,82,0.00,,,0.00,WeatherCatV1.21B27,2013-10-10 19:31:00,
2013-10-10 15:36:00,58.4,52.9,30.17,NNE,18,2.0,2.0,82,0.00,,,0.00,WeatherCatV1.21B27,2013-10-10 19:36:00,
2013-10-10 15:41:00,58.3,52.8,30.17,NNE,28,0.0,2.0,82,0.00,,,0.00,WeatherCatV1.21B27,2013-10-10 19:41:00,
2013-10-10 15:46:00,58.1,52.6,30.17,East,83,3.0,4.0,82,0.00,,,0.00,WeatherCatV1.21B27,2013-10-10 19:46:00,
2013-10-10 15:51:00,57.9,52.8,30.17,North,2,3.0,4.0,83,0.00,,,0.00,WeatherCatV1.21B27,2013-10-10 19:51:00,
2013-10-10 15:56:00,57.7,52.6,30.17,NE,42,0.0,0.0,83,0.00,,,0.00,WeatherCatV1.21B27,2013-10-10 19:56:00,
2013-10-10 16:01:00,57.6,52.8,30.16,NE,42,0.0,1.0,84,0.00,,,0.00,WeatherCatV1.21B27,2013-10-10 20:01:00,
2013-10-10 16:06:00,57.5,52.7,30.17,NNE,30,0.0,1.0,84,0.00,,,0.00,WeatherCatV1.21B27,2013-10-10 20:06:00,
2013-10-10 16:11:00,57.5,52.7,30.16,NE,35,0.0,1.0,84,0.00,,,0.00,WeatherCatV1.21B27,2013-10-10 20:11:00,
2013-10-10 16:16:00,57.4,52.6,30.17,NE,52,1.0,2.0,84,0.00,,,0.00,WeatherCatV1.21B27,2013-10-10 20:16:00,
2013-10-10 16:21:00,57.3,52.8,30.17,NNE,14,0.0,2.0,85,0.00,,,0.00,WeatherCatV1.21B27,2013-10-10 20:21:00,
2013-10-10 16:26:00,57.4,52.9,30.17,NNE,14,0.0,1.0,85,0.00,,,0.00,WeatherCatV1.21B27,2013-10-10 20:26:00,
2013-10-10 16:31:00,57.4,52.9,30.17,NE,51,0.0,1.0,85,0.00,,,0.00,WeatherCatV1.21B27,2013-10-10 20:31:00,
2013-10-10 16:36:00,57.4,52.9,30.17,North,7,0.0,1.0,85,0.00,,,0.00,WeatherCatV1.21B27,2013-10-10 20:36:00,
2013-10-10 16:41:00,57.3,52.8,30.16,NNE,15,2.0,3.0,85,0.00,,,0.00,WeatherCatV1.21B27,2013-10-10 20:41:00,
2013-10-10 16:46:00,57.3,53.2,30.16,NNE,19,0.0,1.0,86,0.00,,,0.00,WeatherCatV1.21B27,2013-10-10 20:46:00,
2013-10-10 16:51:00,57.3,53.2,30.16,NNE,15,0.0,3.0,86,0.00,,,0.00,WeatherCatV1.21B27,2013-10-10 20:51:00,
2013-10-10 16:56:00,57.4,53.2,30.16,NNE,17,0.0,1.0,86,0.00,,,0.00,WeatherCatV1.21B27,2013-10-10 20:56:00,
2013-10-10 17:01:00,57.3,53.2,30.17,NNE,17,2.0,2.0,86,0.00,,,0.00,WeatherCatV1.21B27,2013-10-10 21:01:00,
2013-10-10 17:06:00,57.3,53.2,30.17,NNE,17,2.0,2.0,86,0.00,,,0.00,WeatherCatV1.21B27,2013-10-10 21:06:00,
2013-10-10 17:11:00,57.2,53.0,30.17,NNE,19,0.0,3.0,86,0.00,,,0.00,WeatherCatV1.21B27,2013-10-10 21:11:00,
2013-10-10 17:16:00,57.3,53.2,30.17,NE,40,0.0,1.0,86,0.00,,,0.00,WeatherCatV1.21B27,2013-10-10 21:16:00,
2013-10-10 17:21:00,57.2,53.0,30.17,NNE,30,0.0,1.0,86,0.00,,,0.00,WeatherCatV1.21B27,2013-10-10 21:21:00,
2013-10-10 17:26:00,57.1,53.0,30.17,NNE,30,0.0,0.0,86,0.00,,,0.00,WeatherCatV1.21B27,2013-10-10 21:26:00,
2013-10-10 17:31:00,57.1,53.3,30.17,NNE,19,0.0,3.0,87,0.00,,,0.00,WeatherCatV1.21B27,2013-10-10 21:31:00,
2013-10-10 17:36:00,57.0,53.2,30.17,NNE,12,0.0,2.0,87,0.00,,,0.00,WeatherCatV1.21B27,2013-10-10 21:36:00,
2013-10-10 17:41:00,56.9,53.1,30.16,NNE,17,0.0,1.0,87,0.00,,,0.00,WeatherCatV1.21B27,2013-10-10 21:41:00,
2013-10-10 17:46:00,56.9,53.1,30.16,NNE,18,0.0,0.0,87,0.00,,,0.00,WeatherCatV1.21B27,2013-10-10 21:46:00,
2013-10-10 17:51:00,56.8,53.0,30.15,ESE,103,1.0,1.0,87,0.00,,,0.00,WeatherCatV1.21B27,2013-10-10 21:51:00,
2013-10-10 17:56:00,56.7,52.9,30.16,NE,39,0.0,1.0,87,0.00,,,0.00,WeatherCatV1.21B27,2013-10-10 21:56:00,
2013-10-10 18:01:00,56.6,53.1,30.15,NNE,15,1.0,1.0,88,0.00,,,0.00,WeatherCatV1.21B27,2013-10-10 22:01:00,
2013-10-10 18:06:00,56.5,53.0,30.15,NNE,30,0.0,1.0,88,0.00,,,0.00,WeatherCatV1.21B27,2013-10-10 22:06:00,
2013-10-10 18:11:00,56.4,52.9,30.15,NNE,30,0.0,1.0,88,0.00,,,0.00,WeatherCatV1.21B27,2013-10-10 22:11:00,
2013-10-10 18:16:00,56.3,52.8,30.15,NNE,18,0.0,3.0,88,0.00,,,0.00,WeatherCatV1.21B27,2013-10-10 22:16:00,
2013-10-10 18:21:00,56.3,52.8,30.15,NE,56,0.0,1.0,88,0.00,,,0.00,WeatherCatV1.21B27,2013-10-10 22:21:00,
2013-10-10 18:26:00,56.3,53.1,30.15,NNE,14,3.0,3.0,89,0.00,,,0.00,WeatherCatV1.21B27,2013-10-10 22:26:00,
2013-10-10 18:31:00,56.2,53.0,30.15,NNE,28,0.0,2.0,89,0.00,,,0.00,WeatherCatV1.21B27,2013-10-10 22:31:00,
2013-10-10 18:36:00,56.2,53.0,30.15,NNE,17,0.0,2.0,89,0.00,,,0.00,WeatherCatV1.21B27,2013-10-10 22:36:00,
2013-10-10 18:41:00,56.2,53.0,30.15,NNE,21,0.0,1.0,89,0.00,,,0.00,WeatherCatV1.21B27,2013-10-10 22:41:00,
2013-10-10 18:46:00,56.2,53.0,30.15,North,7,0.0,3.0,89,0.00,,,0.00,WeatherCatV1.21B27,2013-10-10 22:46:00,
2013-10-10 18:51:00,56.3,53.1,30.15,North,7,0.0,1.0,89,0.00,,,0.00,WeatherCatV1.21B27,2013-10-10 22:51:00,
2013-10-10 18:56:00,56.3,53.1,30.15,NNE,26,0.0,1.0,89,0.00,,,0.00,WeatherCatV1.21B27,2013-10-10 22:56:00,
2013-10-10 19:01:00,56.3,53.1,30.16,NE,40,0.0,1.0,89,0.00,,,0.00,WeatherCatV1.21B27,2013-10-10 23:01:00,
2013-10-10 19:06:00,56.2,53.0,30.16,NNE,19,0.0,2.0,89,0.00,,,0.00,WeatherCatV1.21B27,2013-10-10 23:06:00,
2013-10-10 19:11:00,56.3,53.1,30.16,North,7,0.0,2.0,89,0.00,,,0.00,WeatherCatV1.21B27,2013-10-10 23:11:00,
2013-10-10 19:16:00,56.2,53.0,30.15,NNE,24,2.0,2.0,89,0.00,,,0.00,WeatherCatV1.21B27,2013-10-10 23:16:00,
2013-10-10 19:21:00,56.2,53.0,30.15,ENE,74,0.0,3.0,89,0.00,,,0.00,WeatherCatV1.21B27,2013-10-10 23:21:00,
2013-10-10 19:26:00,56.2,53.0,30.15,NNE,16,1.0,2.0,89,0.00,,,0.00,WeatherCatV1.21B27,2013-10-10 23:26:00,
2013-10-10 19:31:00,56.2,53.0,30.15,East,89,1.0,2.0,89,0.00,,,0.00,WeatherCatV1.21B27,2013-10-10 23:31:00,
2013-10-10 19:36:00,56.2,53.0,30.15,ENE,75,0.0,3.0,89,0.00,,,0.00,WeatherCatV1.21B27,2013-10-10 23:36:00,
2013-10-10 19:41:00,56.1,52.9,30.15,NNE,17,0.0,0.0,89,0.00,,,0.00,WeatherCatV1.21B27,2013-10-10 23:41:00,
2013-10-10 19:46:00,56.2,53.0,30.15,NNE,17,1.0,2.0,89,0.00,,,0.00,WeatherCatV1.21B27,2013-10-10 23:46:00,
2013-10-10 19:51:00,56.1,52.9,30.15,NE,44,0.0,2.0,89,0.00,,,0.00,WeatherCatV1.21B27,2013-10-10 23:51:00,
2013-10-10 19:56:00,56.1,53.2,30.15,NNE,23,0.0,1.0,90,0.00,,,0.00,WeatherCatV1.21B27,2013-10-10 23:56:00,
2013-10-10 20:01:00,56.1,53.2,30.15,North,2,0.0,2.0,90,0.00,,,0.00,WeatherCatV1.21B27,2013-10-11 00:01:00,
2013-10-10 20:06:00,56.1,53.2,30.15,NNE,20,0.0,1.0,90,0.00,,,0.00,WeatherCatV1.21B27,2013-10-11 00:06:00,
2013-10-10 20:11:00,56.1,53.2,30.15,NNE,20,0.0,0.0,90,0.00,,,0.00,WeatherCatV1.21B27,2013-10-11 00:11:00,
2013-10-10 20:16:00,56.1,53.2,30.15,NNE,20,0.0,0.0,90,0.00,,,0.00,WeatherCatV1.21B27,2013-10-11 00:16:00,
2013-10-10 20:21:00,56.0,53.1,30.15,NNE,24,0.0,1.0,90,0.00,,,0.00,WeatherCatV1.21B27,2013-10-11 00:21:00,
2013-10-10 20:26:00,56.0,53.1,30.15,North,2,0.0,2.0,90,0.00,,,0.00,WeatherCatV1.21B27,2013-10-11 00:26:00,
2013-10-10 20:31:00,56.0,53.1,30.15,North,2,0.0,0.0,90,0.00,,,0.00,WeatherCatV1.21B27,2013-10-11 00:31:00,
2013-10-10 20:36:00,56.0,53.1,30.15,NNE,15,0.0,1.0,90,0.00,,,0.00,WeatherCatV1.21B27,2013-10-11 00:36:00,
2013-10-10 20:41:00,56.1,53.2,30.15,NNE,15,0.0,1.0,90,0.00,,,0.00,WeatherCatV1.21B27,2013-10-11 00:41:00,
2013-10-10 20:46:00,56.1,53.5,30.14,NNE,15,0.0,2.0,91,0.00,,,0.00,WeatherCatV1.21B27,2013-10-11 00:46:00,
2013-10-10 20:51:00,56.1,53.5,30.14,East,95,1.0,1.0,91,0.00,,,0.00,WeatherCatV1.21B27,2013-10-11 00:51:00,
2013-10-10 20:56:00,56.1,53.5,30.14,North,7,0.0,4.0,91,0.00,,,0.00,WeatherCatV1.21B27,2013-10-11 00:56:00,
2013-10-10 21:01:00,56.1,53.5,30.14,North,7,0.0,0.0,91,0.00,,,0.00,WeatherCatV1.21B27,2013-10-11 01:01:00,
2013-10-10 21:06:00,56.2,53.6,30.14,NNW,339,0.0,1.0,91,0.00,,,0.00,WeatherCatV1.21B27,2013-10-11 01:06:00,
2013-10-10 21:11:00,56.2,53.6,30.14,NNE,21,0.0,0.0,91,0.00,,,0.00,WeatherCatV1.21B27,2013-10-11 01:11:00,
2013-10-10 21:16:00,56.2,53.6,30.14,North,7,0.0,3.0,91,0.00,,,0.00,WeatherCatV1.21B27,2013-10-11 01:16:00,
2013-10-10 21:21:00,56.2,53.6,30.14,NNE,29,0.0,0.0,91,0.00,,,0.00,WeatherCatV1.21B27,2013-10-11 01:21:00,
2013-10-10 21:26:00,56.3,53.7,30.14,NE,42,0.0,0.0,91,0.00,,,0.00,WeatherCatV1.21B27,2013-10-11 01:26:00,
2013-10-10 21:31:00,56.3,53.7,30.14,NNE,32,0.0,1.0,91,0.00,,,0.00,WeatherCatV1.21B27,2013-10-11 01:31:00,
2013-10-10 21:36:00,56.3,53.7,30.15,NNE,18,0.0,3.0,91,0.00,,,0.00,WeatherCatV1.21B27,2013-10-11 01:36:00,
2013-10-10 21:41:00,56.3,53.7,30.14,NNE,29,1.0,1.0,91,0.00,,,0.00,WeatherCatV1.21B27,2013-10-11 01:41:00,
2013-10-10 21:46:00,56.4,53.8,30.14,NNE,30,0.0,0.0,91,0.00,,,0.00,WeatherCatV1.21B27,2013-10-11 01:46:00,
2013-10-10 21:51:00,56.4,53.8,30.14,NNE,30,1.0,1.0,91,0.00,,,0.00,WeatherCatV1.21B27,2013-10-11 01:51:00,
2013-10-10 21:56:00,56.4,53.8,30.14,NNE,30,0.0,0.0,91,0.00,,,0.00,WeatherCatV1.21B27,2013-10-11 01:56:00,
2013-10-10 22:01:00,56.4,53.8,30.14,NNE,15,0.0,4.0,91,0.00,,,0.00,WeatherCatV1.21B27,2013-10-11 02:01:00,
2013-10-10 22:06:00,56.4,53.8,30.14,NNE,15,0.0,1.0,91,0.00,,,0.00,WeatherCatV1.21B27,2013-10-11 02:06:00,
2013-10-10 22:11:00,56.4,53.8,30.14,NNE,15,0.0,0.0,91,0.00,,,0.00,WeatherCatV1.21B27,2013-10-11 02:11:00,
2013-10-10 22:16:00,56.4,53.8,30.14,NNE,15,0.0,0.0,91,0.00,,,0.00,WeatherCatV1.21B27,2013-10-11 02:16:00,
2013-10-10 22:21:00,56.4,53.8,30.14,NNE,15,0.0,0.0,91,0.00,,,0.00,WeatherCatV1.21B27,2013-10-11 02:21:00,
2013-10-10 22:26:00,56.4,53.8,30.14,NNE,15,0.0,0.0,91,0.00,,,0.00,WeatherCatV1.21B27,2013-10-11 02:26:00,
2013-10-10 22:31:00,56.4,53.8,30.14,NNE,15,0.0,0.0,91,0.00,,,0.00,WeatherCatV1.21B27,2013-10-11 02:31:00,
2013-10-10 22:36:00,56.4,53.8,30.13,NNE,15,0.0,0.0,91,0.00,,,0.00,WeatherCatV1.21B27,2013-10-11 02:36:00,
2013-10-10 22:41:00,56.3,53.7,30.13,NNE,15,0.0,0.0,91,0.00,,,0.00,WeatherCatV1.21B27,2013-10-11 02:41:00,
2013-10-10 22:46:00,56.3,53.7,30.13,NNE,15,0.0,0.0,91,0.00,,,0.00,WeatherCatV1.21B27,2013-10-11 02:46:00,
2013-10-10 22:51:00,56.2,53.6,30.13,NNE,14,0.0,0.0,91,0.00,,,0.00,WeatherCatV1.21B27,2013-10-11 02:51:00,
2013-10-10 22:56:00,56.1,53.5,30.13,NNE,14,0.0,0.0,91,0.00,,,0.00,WeatherCatV1.21B27,2013-10-11 02:56:00,
2013-10-10 23:01:00,56.0,53.4,30.13,NNE,14,0.0,0.0,91,0.00,,,0.00,WeatherCatV1.21B27,2013-10-11 03:01:00,
2013-10-10 23:06:00,55.8,53.2,30.13,NNE,14,0.0,0.0,91,0.00,,,0.00,WeatherCatV1.21B27,2013-10-11 03:06:00,
2013-10-10 23:11:00,55.6,53.0,30.13,NNE,14,0.0,0.0,91,0.00,,,0.00,WeatherCatV1.21B27,2013-10-11 03:11:00,
2013-10-10 23:16:00,55.4,53.1,30.13,NNE,14,0.0,0.0,92,0.00,,,0.00,WeatherCatV1.21B27,2013-10-11 03:16:00,
2013-10-10 23:21:00,55.1,52.8,30.13,NNE,14,0.0,0.0,92,0.00,,,0.00,WeatherCatV1.21B27,2013-10-11 03:21:00,
2013-10-10 23:26:00,54.9,52.6,30.12,NNE,14,0.0,0.0,92,0.00,,,0.00,WeatherCatV1.21B27,2013-10-11 03:26:00,
2013-10-10 23:31:00,54.6,52.3,30.12,NNE,14,0.0,0.0,92,0.00,,,0.00,WeatherCatV1.21B27,2013-10-11 03:31:00,
2013-10-10 23:36:00,54.4,52.1,30.12,NNE,14,0.0,0.0,92,0.00,,,0.00,WeatherCatV1.21B27,2013-10-11 03:36:00,
2013-10-10 23:41:00,54.2,51.9,30.12,NNE,14,0.0,0.0,92,0.00,,,0.00,WeatherCatV1.21B27,2013-10-11 03:41:00,
2013-10-10 23:46:00,54.0,52.0,30.12,NNE,14,0.0,0.0,93,0.00,,,0.00,WeatherCatV1.21B27,2013-10-11 03:46:00,
2013-10-10 23:51:00,53.9,51.9,30.11,NNE,14,0.0,0.0,93,0.00,,,0.00,WeatherCatV1.21B27,2013-10-11 03:51:00,
2013-10-10 23:56:00,53.7,52.0,30.11,NNE,14,0.0,0.0,94,0.00,,,0.00,WeatherCatV1.21B27,2013-10-11 03:56:00,